Flag for New Zealand Weather past 2 weeks in Wellington, New Zealand

Now
48 °F

Sprinkles. Partly sunny.


Feels Like: 46 °F
Forecast: 44 / 50 °F
Wind: 6 mph from Northwest

Location: Wellington Airport

Current Time: Jul 7, 2015 at 10:57:05 AM

Latest Report: Jul 7, 2015 at 10:30 AM


Visibility: N/A

Pressure: 29.56 "Hg

Humidity: 71%

Dew point: 39 °F

Location of WellingtonLocation

Historic Weather in Wellington — Graph

°F

Wellington temperature yesterday

Maximum temperature yesterday: 57 °F (at 11:00 AM)
Minimum temperature yesterday: 48 °F (at 9:30 PM)
Average temperature yesterday: 53 °F

Past Weeks' High & Low Weather Summary

 TemperatureHumidityPressure
High57 °F (Jun 26, 3:30 PM)100% (Jun 23, 12:30 AM)30.51 "Hg (Jun 23, 12:30 AM)
Low41 °F (Jun 22, 6:30 PM)38% (Jul 5, 11:30 PM)29.53 "Hg (Jul 6, 2:00 PM)
Average50 °F74%29.94 "Hg
* Reported Jun 22 9:00 AM — Jul 7 9:30 AM, Wellington, Weather by CustomWeather, © 2015

Note: Actual official high and low records may vary slightly from our data, if they occured in-between our weather recording intervals... More about our weather records

Advertising

Wellington weather history for previous 24 hours

 ConditionsComfort  
Time TempWeatherWind HumidityBarometerVisibility
9:30 AM
Tue, Jul 7
48 °FSprinkles. More clouds than sun.6 mph62%29.56 "HgN/A
9:00 AM50 °FSprinkles. More clouds than sun.9 mph62%29.56 "HgN/A
8:30 AM50 °FLight rain. Partly sunny.2 mph67%29.56 "HgN/A
8:00 AM50 °FScattered clouds.7 mph67%29.53 "HgN/A
7:30 AM50 °FCool.8 mph67%29.56 "HgN/A
7:00 AM50 °FCool.8 mph67%29.53 "HgN/A
6:30 AM50 °FCool.9 mph67%29.53 "HgN/A
6:00 AM50 °FCool.12 mph67%29.53 "HgN/A
5:30 AM50 °FCool.13 mph67%29.53 "HgN/A
5:00 AM48 °FCool.12 mph76%29.53 "HgN/A
4:30 AM48 °FCool.10 mph71%29.53 "HgN/A
4:00 AM48 °FCool.9 mph71%29.53 "HgN/A
3:30 AM46 °FCool.8 mph76%29.53 "HgN/A
3:00 AM48 °FCool.8 mph71%29.56 "HgN/A
2:30 AM50 °FCool.9 mph67%29.56 "HgN/A
2:00 AM50 °FCool.10 mph67%29.56 "HgN/A
1:30 AM50 °FCool.12 mph62%29.56 "HgN/A
1:00 AM46 °FCool.8 mph71%29.56 "HgN/A
12:30 AM48 °FCool.9 mph66%29.56 "HgN/A
12:00 AM48 °FCool.8 mph66%29.56 "HgN/A
11:30 PM
Mon, Jul 6
50 °FCool.7 mph62%29.56 "HgN/A
11:00 PM50 °FCool.7 mph62%29.56 "HgN/A
10:30 PM50 °FCool.6 mph62%29.56 "HgN/A
10:00 PM50 °FCool.7 mph58%29.56 "HgN/A
9:30 PM48 °FCool.6 mph62%29.56 "HgN/A
9:00 PM50 °FCool.6 mph58%29.56 "HgN/A
8:30 PM50 °FCool.5 mph58%29.56 "HgN/A
8:00 PM50 °FCool.9 mph67%29.56 "HgN/A
7:30 PM50 °FCool.7 mph62%29.56 "HgN/A
7:00 PM50 °FCool.7 mph62%29.56 "HgN/A
6:30 PM52 °FCool.8 mph62%29.56 "HgN/A
6:00 PM54 °FCool.7 mph58%29.56 "HgN/A
5:30 PM54 °FPassing clouds.9 mph63%29.53 "HgN/A
5:00 PM54 °FPassing clouds.8 mph67%29.56 "HgN/A
4:30 PM54 °FPassing clouds.9 mph72%29.56 "HgN/A
4:00 PM55 °FPassing clouds.9 mph67%29.53 "HgN/A
3:30 PM55 °FCool.14 mph67%29.53 "HgN/A
3:00 PM57 °FPassing clouds.14 mph59%29.53 "HgN/A
2:30 PM55 °FCool.14 mph63%29.53 "HgN/A
2:00 PM57 °FPassing clouds.15 mph55%29.53 "HgN/A
1:30 PM57 °FScattered clouds.14 mph55%29.56 "HgN/A
1:00 PM57 °FPassing clouds.13 mph55%29.56 "HgN/A
12:30 PM57 °FRefreshingly cool.12 mph51%29.56 "HgN/A
12:00 PM55 °FPassing clouds.12 mph59%29.56 "HgN/A
11:30 AM55 °FRefreshingly cool.13 mph59%29.59 "HgN/A
11:00 AM57 °FRefreshingly cool.9 mph44%29.59 "HgN/A
10:30 AM55 °FRefreshingly cool.15 mph44%29.59 "HgN/A
10:00 AM55 °FRefreshingly cool.15 mph47%29.59 "HgN/A
Weather by CustomWeather, © 2015

See weather overviewHow to use our weather pages